User: anonymous   Login
Location: Jetmore Oil Field
(38.1181°N, 99.9337°W)
Time: 09:27:06
(UTC+00:00)
Language:

STARLINK-2758 - Orbit

View from above orbital plane
View from above orbital plane
View from above satellite
View from above satellite

Ground track
Ground track

The orbit data is extracted from the following two-line orbital elements,

1 48638C 21044A   21264.11058402 -.00001259  00000-0 -84411-4 0  2642
2 48638  53.0535 236.5562 0001612  59.3906 264.4832 15.06383260    17
Epoch (UTC): 21 September 2021 02:39:14
Eccentricity: 0.0001612
inclination: 53.0535°
perigee height: 546 km
apogee height: 548 km
right ascension of ascending node: 236.5562°
argument of perigee: 59.3906°
revolutions per day: 15.06383260
mean anomaly at epoch: 264.4832°
orbit number at epoch: 1

The dashed part of the orbit path shows where the satellite is in the earth's shadow,  

DLR